Regional Weather Roundup
Issued by NWS

Home | Current Version | Previous Version | Text Only | Print | Product List | Glossary Off
Versions: 1 2 3 4 5 6 7 8 9 10 11 12 13 14 15 16 17 18 19 20 21 22 23 24 25 26 27 28 29 30 31 32 33 34 35 36 37 38 39 40 41 42 43 44 45 46 47 48 49 50

000
ASUS43 KBIS 250510
RWRND

NORTH DAKOTA REGIONAL WEATHER ROUNDUP
NATIONAL WEATHER SERVICE BISMARCK ND
1200 AM CDT TUE JUL 25 2017

NOTE: "FAIR" INDICATES FEW OR NO CLOUDS BELOW 12,000 FEET WITH NO
SIGNIFICANT WEATHER AND/OR OBSTRUCTIONS TO VISIBILITY.


NDZ001>003-009>011-017-250600-
NORTHWEST NORTH DAKOTA

CITY           SKY/WX    TMP DP  RH WIND       PRES   REMARKS
WILLISTON      CLOUDY    72  48  42 N5        29.85S
MINOT          MOCLDY    72  58  61 W6        29.82S
MINOT AFB      CLOUDY    73  55  51 NW10      29.81R
$$

NDZ018>021-031>035-040>046-250600-
SOUTHWEST NORTH DAKOTA

CITY           SKY/WX    TMP DP  RH WIND       PRES   REMARKS
BISMARCK       CLEAR     73  67  81 S10       29.83R
DICKINSON      CLEAR     74  57  55 N9        29.86R
GARRISON         N/A     77  67  71 S9        29.82S
HETTINGER ARPT CLEAR     74  65  73 E6        29.87R
$$

NDZ004>008-012>016-024-026-027-054-250600-
NORTHEAST NORTH DAKOTA

CITY           SKY/WX    TMP DP  RH WIND       PRES   REMARKS
GRAND FORKS    PTCLDY    69  65  86 S10       29.86R
GRND FRKS AFB  PTCLDY    69  64  83 S14       29.86R
DEVILS LAKE    CLOUDY    71  65  81 S15       29.84R
$$

NDZ022-023-025-028>030-036>039-047>053-250600-
SOUTHEAST NORTH DAKOTA

CITY           SKY/WX    TMP DP  RH WIND       PRES   REMARKS
FARGO          CLOUDY    71  63  75 SE20G25   29.87F
JAMESTOWN      CLEAR     68  64  87 SE10      29.85R
$$





USA.gov is the U.S. government's official web portal to all federal, state and local government web resources and services.